[[[{"header":{"parameterUnit":"kt","parameterCategory":2,"dx":1,"dy":1,"la1":30.253999710083008,"la2":30.299108505249023,"lo1":-89.0895004272461,"lo2":-89.04439544677734,"nx":28,"ny":28,"refTime":"2022-10-08T21:00:00:Z","depth":0,"parameterNumber":1,"parameterNumberName":"U-component_of_WINDS"},"data":[-8.9736,-8.9898,-8.9867,-9.0037,-9.0037,-9.0148,-9.0177,-9.0212,-9.0231,-9.0359,-9.0426,-9.041,-9.0416,-9.0489,-9.056,-9.0551,-9.0585,-9.0666,-9.0642,-9.0306,-9.0258,-9.0211,-9.0172,-9.0674,-9.0674,-9.0995,-9.0998,-9.1001,-8.9497,-8.95,-8.958,-8.9636,-8.9704,-8.9607,-8.9643,-8.9707,-8.9808,-8.9832,-8.9896,-9.0006,-9.0087,-9.0064,-9.0137,-9.0212,-9.0171,-9.0235,-9.023,-9.0233,-8.9872,-8.983,-9.0267,-9.0267,-9.0267,-9.0267,-9.0267,-9.0267,-8.9053,-8.9151,-8.9166,-8.9252,-8.9271,-8.9308,-8.9396,-8.9373,-8.945,-8.9522,-8.9466,-8.958,-8.9597,-8.9667,-8.9682,-8.9769,-8.9692,-8.9752,-8.9767,-8.9784,-8.9809,-8.9355,-8.9779,-8.9778,-8.9776,-8.9775,-8.9774,0,-8.8719,-8.8686,-8.8759,-8.8824,-8.8884,-8.8931,-8.8967,-8.902,-8.8935,-8.9002,-8.9096,-8.9145,-8.924,-8.9325,-8.9385,-8.9387,-8.9293,-8.9278,-8.9319,-8.9351,-8.9372,-8.9366,-8.8782,-8.9266,-8.9262,-8.9258,-8.9256,-8.9254,-8.8272,-8.8388,-8.8386,-8.8442,-8.8453,-8.8544,-8.8592,-8.8507,-8.8561,-8.8593,-8.8683,-8.8766,-8.8828,-8.8983,-8.8953,-8.9024,-8.898,-8.9169,-8.899,-8.9015,-8.8986,-8.8982,-8.8994,-8.9206,-8.9213,-8.9217,-8.9222,0,-8.8024,-8.7968,-8.8137,-8.8121,-8.8121,-8.8248,-8.8234,-8.8327,-8.8292,-8.8416,-8.8439,-8.8386,-8.8479,-8.8417,-8.851,-8.8475,-8.8685,-8.8638,-8.868,-8.8668,-8.8834,-8.8821,-8.9375,-8.9444,-8.892,-8.8925,-8.8929,0,-8.7621,-8.7776,-8.7684,-8.7785,-8.7955,-8.7864,-8.8035,-8.8022,-8.8032,-8.8128,-8.8009,-8.8102,-8.8007,-8.8091,-8.804,-8.8199,-8.8215,-8.8199,-8.8184,-8.8212,-8.8215,-8.8241,-8.8218,-8.8141,-8.8138,-8.8136,-8.8133,0,-8.7241,-8.7371,-8.7533,-8.7554,-8.7552,-8.7631,-8.7634,-8.7644,-8.7691,-8.774,-8.777,-8.7834,-8.7871,-8.7923,-8.7856,-8.7738,-8.8049,-8.7871,-8.8032,-8.8035,-8.8106,-8.8103,-8.8608,-8.813,-8.8129,-8.8128,-8.8127,0,-8.6907,-8.6959,-8.7202,-8.7198,-8.7235,-8.7342,-8.7399,-8.7476,-8.7495,-8.7469,-8.7507,-8.742,-8.7551,-8.7381,-8.7561,-8.7426,-8.7469,-8.7464,-8.7474,-8.7484,-8.7296,-8.7593,-8.8076,-8.8126,-8.7492,-8.7487,-8.7482,0,-8.6488,-8.6718,-8.6641,-8.6874,-8.6971,-8.683,-8.6947,-8.6966,-8.6941,-8.7019,-8.6989,-8.708,-8.6938,-8.6958,-8.7055,-8.7029,-8.7205,-8.7003,-8.7121,-8.7126,-8.7124,-8.7567,-8.7657,-8.7977,-8.7413,-8.742,-8.7425,0,-8.6157,-8.6151,-8.6198,-8.6217,-8.6228,-8.6307,-8.6441,-8.6509,-8.6566,-8.66,-8.6711,-8.6833,-8.6733,-8.6765,-8.67,-8.6806,-8.7083,-8.6683,-8.6682,-8.676,-8.7371,-8.7456,-8.751,-8.7017,-8.7025,-8.7032,-8.7371,0,-8.5671,-8.5776,-8.5899,-8.5945,-8.5995,-8.6136,-8.6067,-8.613,-8.6062,-8.6031,-8.619,-8.6188,-8.6258,-8.63,-8.6234,-8.6493,-8.644,-8.6331,-8.6162,-8.6453,-8.6563,-8.6608,-8.6004,-8.5998,-8.5994,-8.599,0,0,-8.5287,-8.5435,-8.5345,-8.547,-8.5508,-8.5358,-8.5515,-8.5533,-8.5575,-8.5605,-8.5509,-8.5684,-8.5686,-8.5887,-8.5972,-8.5999,-8.604,-8.5941,-8.6314,-8.6351,-8.6384,-8.6503,-8.6551,-8.5982,-8.598,-8.5978,-8.5977,0,-8.5095,-8.5099,-8.5254,-8.5269,-8.5288,-8.5246,-8.5284,-8.5276,-8.5263,-8.5417,-8.5292,-8.5379,-8.5519,-8.5539,-8.5568,-8.5914,-8.5815,-8.594,-8.6151,-8.627,-8.6313,-8.635,-8.6477,-8.6523,-8.5966,-8.5967,-8.5967,0,-8.4758,-8.4752,-8.4818,-8.4894,-8.4905,-8.5007,-8.4812,-8.4927,-8.5002,-8.4831,-8.4987,-8.4977,-8.4996,-8.5194,-8.528,-8.5195,-8.5615,-8.5469,-8.5495,-8.5504,-8.5617,-8.5668,-8.5714,-8.5114,-8.5111,-8.5109,0,0,-8.4602,-8.4698,-8.4663,-8.4847,-8.4863,-8.4802,-8.4849,-8.4785,-8.4805,-8.4814,-8.4798,-8.4823,-8.4903,-8.4958,-8.5029,-8.5256,-8.5254,-8.5367,-8.5407,-8.544,-8.5467,-8.5589,-8.5639,-8.5099,-8.5099,-8.5098,0,0,-8.4527,-8.4494,-8.4421,-8.4626,-8.465,-8.4628,-8.4743,-8.4654,-8.4711,-8.4687,-8.4585,-8.4587,-8.477,-8.4764,-8.4637,-8.4968,-8.4801,-8.483,-8.4965,-8.5015,-8.5055,-8.5053,-8.4437,0,0,0,0,0,-8.4295,-8.4497,-8.4432,-8.4456,-8.455,-8.4664,-8.4676,-8.4596,-8.448,-8.4574,-8.4546,-8.4436,-8.4675,-8.456,-8.4585,-8.4728,-8.4968,-8.4992,-8.5013,-8.524,-8.5293,-8.5338,0,0,0,0,0,0,-8.4303,-8.4333,-8.4426,-8.4414,-8.4434,-8.4656,-8.4443,-8.4426,-8.4468,-8.4445,-8.4445,-8.4436,-8.437,-8.4541,-8.4565,-8.4703,-8.4429,-8.4978,-8.4997,-8.5015,-8.5259,-8.5302,-8.5339,0,0,0,0,0,-8.431,-8.4333,-8.4505,-8.4411,-8.4429,-8.4371,-8.4434,-8.4419,-8.445,-8.4407,-8.4394,-8.4386,-8.4376,-8.4391,-8.4555,-8.4694,-8.4411,-8.4421,-8.499,-8.5006,-8.502,-8.528,0,0,0,0,0,0,-8.4315,-8.432,-8.4507,-8.4509,-8.4328,-8.4357,-8.4359,-8.4413,-8.4407,-8.4397,-8.4342,-8.4324,-8.4383,-8.4393,-8.4405,-8.4696,-8.4397,-8.4407,-8.4413,-8.5002,-8.5014,-8.5025,0,0,0,0,0,0,-8.4307,-8.4324,-8.4508,-8.4408,-8.4398,-8.4345,-8.4346,-8.4473,-8.4409,-8.4342,-8.4326,-8.4334,-8.4364,-8.4396,-8.4404,-8.4606,-8.4386,-8.4396,-8.4402,-8.4406,-8.5012,-8.5021,0,0,0,0,0,0,-8.4312,-8.4327,-8.4406,-8.4399,-8.439,-8.4411,-8.4455,-8.4556,-8.4323,-8.4345,-8.43,-8.4289,-8.4371,-8.4377,-8.4405,-8.4604,-8.4606,-8.4387,-8.4393,-8.4397,-8.44,0,0,0,0,0,0,0,-8.4317,-8.4241,-8.4493,-8.4392,-8.4383,-8.4532,-8.4532,-8.4533,-8.4321,-8.4311,-8.4302,-8.4294,-8.4335,-8.4345,-8.4355,-8.4602,0,0,-8.4386,-8.439,0,0,0,0,0,0,0,0,-8.4234,-8.4239,-8.4493,-8.4493,-8.4494,-8.4532,-8.4532,-8.4533,-8.4319,-8.4312,-8.4304,-8.4297,-8.4338,-8.4345,-8.4354,0,0,0,0,0,0,0,0,0,0,0,0,0,0,0,-8.4493,-8.4493,0,-8.4532,-8.4532,-8.4533,-8.4318,-8.4312,-8.4306,-8.43,-8.434,-8.4346,-8.4353,0,0,0,0,0,0,0,0,0,0,0,0,0,0,0,0,0,0,0,0,0,0,0,0,0,0,0,0,0,0,0,0,0,0,0,0,0,0,0,0,0,0,0,0,0,0,0,0,0,0,0,0,0,0,0,0,0,0,0,0,0,0,0,0,0,0,0,0,0]}],[{"header":{"parameterUnit":"kt","parameterCategory":2,"dx":1,"dy":1,"la1":30.253999710083008,"la2":30.299108505249023,"lo1":-89.0895004272461,"lo2":-89.04439544677734,"nx":28,"ny":28,"refTime":"2022-10-08T21:00:00:Z","depth":0,"parameterNumber":2,"parameterNumberName":"V-component_of_WINDS"},"data":[-6.6371,-6.6494,-6.6496,-6.6636,-6.6661,-6.6757,-6.6792,-6.6837,-6.6872,-6.6986,-6.7052,-6.7065,-6.7101,-6.7179,-6.725,-6.7254,-6.7286,-6.7327,-6.7326,-6.7136,-6.711,-6.7085,-6.7057,-6.7333,-6.7334,-6.7523,-6.7525,-6.7526,-6.623,-6.6256,-6.6331,-6.6405,-6.6469,-6.6429,-6.6483,-6.654,-6.6627,-6.6671,-6.6736,-6.6837,-6.6916,-6.6938,-6.7014,-6.7071,-6.7058,-6.7092,-6.7089,-6.7096,-6.6892,-6.6863,-6.7102,-6.7102,-6.7102,-6.7102,-6.7102,-6.7102,-6.5975,-6.6048,-6.6094,-6.6175,-6.6212,-6.6261,-6.6332,-6.6347,-6.642,-6.65,-6.6487,-6.6585,-6.663,-6.6723,-6.6754,-6.683,-6.6793,-6.6831,-6.6842,-6.6852,-6.6864,-6.6593,-6.6843,-6.6842,-6.6842,-6.6841,-6.6841,0,-6.5789,-6.5785,-6.5857,-6.593,-6.5989,-6.6046,-6.6097,-6.6141,-6.6133,-6.6193,-6.6281,-6.6332,-6.6431,-6.6514,-6.6586,-6.661,-6.6577,-6.6573,-6.66,-6.661,-6.6609,-6.6613,-6.6283,-6.6566,-6.6564,-6.6562,-6.6561,-6.656,-6.5533,-6.5618,-6.5667,-6.5717,-6.5746,-6.5828,-6.5876,-6.5863,-6.5916,-6.5977,-6.6042,-6.6124,-6.619,-6.633,-6.6347,-6.6422,-6.6407,-6.6515,-6.6418,-6.6422,-6.6411,-6.6407,-6.6416,-6.6535,-6.6538,-6.6541,-6.6543,0,-6.5389,-6.5391,-6.5524,-6.5564,-6.5576,-6.5667,-6.57,-6.5773,-6.5779,-6.588,-6.5903,-6.5915,-6.6001,-6.6,-6.6099,-6.6096,-6.6244,-6.6226,-6.6228,-6.6226,-6.6324,-6.6316,-6.664,-6.6683,-6.6393,-6.6396,-6.6398,0,-6.5173,-6.5286,-6.5283,-6.536,-6.5484,-6.5469,-6.5592,-6.561,-6.5649,-6.5729,-6.5689,-6.5765,-6.5752,-6.5827,-6.5824,-6.5944,-6.5962,-6.5968,-6.5966,-6.5973,-6.5973,-6.6003,-6.5991,-6.5956,-6.5954,-6.5953,-6.5952,0,-6.495,-6.508,-6.5204,-6.5235,-6.5289,-6.5348,-6.5373,-6.5417,-6.5465,-6.5527,-6.5558,-6.5631,-6.5672,-6.5729,-6.5724,-6.5658,-6.587,-6.5779,-6.5877,-6.5877,-6.5927,-6.5924,-6.6209,-6.595,-6.5949,-6.5948,-6.5948,0,-6.4777,-6.484,-6.5021,-6.5065,-6.51,-6.5182,-6.5253,-6.5323,-6.5372,-6.5375,-6.5424,-6.5399,-6.5503,-6.5413,-6.5557,-6.5473,-6.5515,-6.553,-6.5536,-6.5549,-6.5448,-6.5612,-6.5881,-6.591,-6.5555,-6.5552,-6.5549,0,-6.4521,-6.4704,-6.4692,-6.4864,-6.4949,-6.49,-6.499,-6.5035,-6.5047,-6.512,-6.5131,-6.5215,-6.5148,-6.5174,-6.5245,-6.5262,-6.537,-6.5247,-6.5354,-6.5358,-6.5345,-6.5591,-6.5633,-6.5821,-6.5507,-6.5512,-6.5515,0,-6.4324,-6.439,-6.4421,-6.4455,-6.4513,-6.4584,-6.4687,-6.4767,-6.4816,-6.4871,-6.4958,-6.5075,-6.5029,-6.5073,-6.5061,-6.5135,-6.5296,-6.5076,-6.5077,-6.5118,-6.5486,-6.5525,-6.5556,-6.5271,-6.5276,-6.5281,-6.5482,0,-6.4065,-6.4157,-6.4241,-6.4319,-6.4373,-6.448,-6.4481,-6.4538,-6.452,-6.4531,-6.4658,-6.4696,-6.4778,-6.4813,-6.4797,-6.4966,-6.4938,-6.4889,-6.4804,-6.4964,-6.5031,-6.5058,-6.4704,-6.4702,-6.47,-6.4698,0,0,-6.3821,-6.3953,-6.3938,-6.4039,-6.4084,-6.4033,-6.4148,-6.4186,-6.4264,-6.4297,-6.4248,-6.4419,-6.4453,-6.4608,-6.4658,-6.4691,-6.4721,-6.4666,-6.4887,-6.4909,-6.4928,-6.4999,-6.5027,-6.4694,-6.4693,-6.4693,-6.4692,0,-6.3727,-6.3762,-6.3876,-6.3914,-6.3971,-6.3977,-6.4004,-6.4052,-6.4064,-6.4189,-6.4146,-6.4222,-6.436,-6.4401,-6.444,-6.4646,-6.461,-6.467,-6.4781,-6.4866,-6.489,-6.4911,-6.4986,-6.5012,-6.4687,-6.4687,-6.4687,0,-6.3535,-6.357,-6.3625,-6.3725,-6.3762,-6.3851,-6.376,-6.3858,-6.3923,-6.3863,-6.3989,-6.401,-6.4066,-6.4212,-6.4277,-6.4236,-6.4509,-6.4423,-6.4436,-6.4445,-6.4527,-6.4555,-6.4581,-6.4244,-6.4242,-6.4241,0,0,-6.3454,-6.3539,-6.3574,-6.3706,-6.3732,-6.3742,-6.3789,-6.3777,-6.3828,-6.3849,-6.3876,-6.3927,-6.4007,-6.406,-6.4135,-6.4295,-6.4306,-6.4368,-6.4389,-6.4406,-6.4424,-6.451,-6.4539,-6.4235,-6.4235,-6.4235,0,0,-6.3416,-6.3461,-6.3435,-6.3588,-6.3637,-6.3681,-6.3761,-6.373,-6.3798,-6.3786,-6.3771,-6.3784,-6.392,-6.3944,-6.3865,-6.4105,-6.4019,-6.4038,-6.4085,-6.4111,-6.4132,-6.4125,-6.378,0,0,0,0,0,-6.3322,-6.3455,-6.3431,-6.3457,-6.3584,-6.3694,-6.371,-6.37,-6.364,-6.3704,-6.3722,-6.368,-6.3898,-6.3828,-6.3854,-6.3943,-6.416,-6.4173,-6.4186,-6.4284,-6.4311,-6.4335,0,0,0,0,0,0,-6.3332,-6.3364,-6.3427,-6.3476,-6.3505,-6.3689,-6.3585,-6.3586,-6.3633,-6.3623,-6.3678,-6.3682,-6.3676,-6.3814,-6.3838,-6.3922,-6.3772,-6.4165,-6.4177,-6.4187,-6.4293,-6.4316,-6.4335,0,0,0,0,0,-6.334,-6.3365,-6.3573,-6.3474,-6.3499,-6.3518,-6.358,-6.358,-6.3616,-6.3645,-6.3647,-6.3605,-6.3679,-6.3698,-6.3828,-6.3912,-6.3755,-6.3764,-6.4173,-6.4182,-6.419,-6.4304,0,0,0,0,0,0,-6.3346,-6.3366,-6.3577,-6.3585,-6.3423,-6.3508,-6.3521,-6.3575,-6.3634,-6.3638,-6.3571,-6.3562,-6.3682,-6.3696,-6.3711,-6.3909,-6.3742,-6.3751,-6.3756,-6.4179,-6.4186,-6.4193,0,0,0,0,0,0,-6.3352,-6.3373,-6.3581,-6.3518,-6.3517,-6.3498,-6.351,-6.3619,-6.3636,-6.3557,-6.3551,-6.3566,-6.366,-6.3696,-6.3708,-6.3879,-6.3732,-6.374,-6.3746,-6.375,-6.4185,-6.4191,0,0,0,0,0,0,-6.3361,-6.3378,-6.3516,-6.3516,-6.3515,-6.3595,-6.3594,-6.3726,-6.3581,-6.3555,-6.3568,-6.3562,-6.3661,-6.3672,-6.3705,-6.3872,-6.3877,-6.3732,-6.3738,-6.3742,-6.3745,0,0,0,0,0,0,0,-6.3367,-6.3253,-6.3535,-6.3514,-6.3513,-6.3651,-6.3653,-6.3655,-6.358,-6.3575,-6.3569,-6.3565,-6.3683,-6.3692,-6.3702,-6.3866,0,0,-6.3731,-6.3735,0,0,0,0,0,0,0,0,-6.3245,-6.3251,-6.3535,-6.3537,-6.3538,-6.3651,-6.3653,-6.3655,-6.3579,-6.3575,-6.3571,-6.3567,-6.3685,-6.3693,-6.37,0,0,0,0,0,0,0,0,0,0,0,0,0,0,0,-6.3535,-6.3536,0,-6.3652,-6.3653,-6.3654,-6.3578,-6.3575,-6.3571,-6.3568,-6.3687,-6.3694,-6.37,0,0,0,0,0,0,0,0,0,0,0,0,0,0,0,0,0,0,0,0,0,0,0,0,0,0,0,0,0,0,0,0,0,0,0,0,0,0,0,0,0,0,0,0,0,0,0,0,0,0,0,0,0,0,0,0,0,0,0,0,0,0,0,0,0,0,0,0,0]}]]]